Weather Roundup
Issued by NWS

Home | Current Version | Previous Version | Text Only | Print | Product List | Glossary On
Versions: 1 2 3 4 5 6 7 8 9 10 11 12 13 14 15 16 17 18 19 20 21 22 23 24 25 26 27 28 29 30 31 32 33 34 35 36 37 38 39 40 41 42 43 44 45 46 47 48 49 50
000
NZUS93 KARX 250010
HRRWXR

CURRENT HOURLY OBSERVATIONS ACROSS
MUCH OF THE UPPER MISSISSIPPI VALLEY
NATIONAL WEATHER SERVICE LA CROSSE WI
700 PM CDT THU APR 24 2014


...SOUTHEAST MINNESOTA...


CITY           SKY/WX    TMP DP  RH WIND       PRES   REMARKS
ROCHESTER      CLOUDY    45  41  86 NW9       29.68S FOG
ROCHESTER/MAYO CLOUDY    45  41  86 NW12      29.68S
WINONA         CLOUDY    43  43 100 CALM      29.68S FOG
AUSTIN         CLOUDY    46  43  87 NW14      29.68S
ALBERT LEA     CLOUDY    48  43  81 NW6       29.69S
DODGE CENTER   CLOUDY    48  43  81 NW12      29.68R
PRESTON        CLOUDY    46  43  88 NW8       29.67F
OWATONNA       CLOUDY    46  41  81 NW10      29.69F
FARIBAULT      CLOUDY    48  43  81 W10       29.69S
$$

...ELSEWHERE IN MINNESOTA...


CITY           SKY/WX    TMP DP  RH WIND       PRES   REMARKS
MINNEAPOLIS    CLOUDY    45  41  86 W10       29.69S
INTNL FALLS    SNOW      33  31  92 E10       29.76R VSB 1/2 WCI  25
DULUTH         LGT SNOW  33  30  88 E18G26    29.70F VSB 1   WCI  22
RED WING       CLOUDY    45  43  93 CALM      29.67F FOG
REDWOOD FALLS  PTSUNNY   53  42  66 N7        29.69F
MANKATO        PTSUNNY   48  41  76 NW9       29.70S
WORTHINGTON    MOSUNNY   54  37  54 N8        29.73S
FAIRMONT       PTSUNNY   54  43  66 NW10      29.72S
$$

...SOUTHWEST WISCONSIN...


CITY           SKY/WX    TMP DP  RH WIND       PRES   REMARKS
LA CROSSE      FOG       46  45  96 NW3       29.66S VSB 3/4
PRAIRIE DU CHI LGT RAIN  51  49  93 CALM      29.67S
BOSCOBEL       RAIN      52  50  93 CALM      29.68S VSB 1
LONE ROCK      LGT RAIN  51  49  92 CALM      29.69S FOG
PLATTEVILLE    CLOUDY    51  49  93 N5        29.68S
FORT MC COY    DRIZZLE   45  45  98 E3        29.67F
CAMP DOUGLAS   DRIZZLE   48  48 100 SE6       29.67F FOG
VIROQUA        CLOUDY    49  49 100 S6        29.66S
WIS DELLS      RAIN      48  46  91 SE3       29.70R
$$

...ELSEWHERE IN WISCONSIN...


CITY           SKY/WX    TMP DP  RH WIND       PRES   REMARKS
MILWAUKEE      LGT RAIN  46  33  60 SE12      29.77S
MADISON        LGT RAIN  50  46  86 E9        29.66F
GREEN BAY      LGT RAIN  42  38  85 E8        29.80S
EAU CLAIRE     CLOUDY    44  43  96 S6        29.66F FOG
BLACK RVR FLS  DRIZZLE   45  45 100 CALM      29.66S
MEDFORD        LGT RAIN  39  38  97 SE15G23   29.68F WCI  30
WAUSAU         LGT RAIN  40  40 100 SE16      29.71F FOG     WCI  31
WIS RAPIDS     LGT RAIN  43  41  93 E8        29.72S FOG
MARSHFIELD     LGT RAIN  42  39  89 SE14      29.68F FOG
RICE LAKE      DRIZZLE   42  40  95 SE3       29.69F
$$

...NORTHEAST IOWA...


CITY           SKY/WX    TMP DP  RH WIND       PRES   REMARKS
WATERLOO       CLOUDY    50  47  89 NW8       29.67R
DUBUQUE        LGT RAIN  51  50  96 CALM      29.66F FOG
DECORAH        CLOUDY    48  48 100 W6        29.67S
MASON CITY     CLOUDY    49  42  77 NW15      29.71R
CHARLES CITY   CLOUDY    48  45  87 NW13      29.68S
OELWEIN        CLOUDY   N/A N/A N/A NW5       29.68R FOG
$$

...ELSEWHERE IN IOWA...


CITY           SKY/WX    TMP DP  RH WIND       PRES   REMARKS
DES MOINES     CLOUDY    54  46  74 N6        29.71R
IOWA CITY      LGT RAIN  53  53 100 CALM      29.67S FOG
FORT DODGE     CLOUDY    54  43  66 N8G16     29.72S
MARSHALLTOWN   CLOUDY    50  47  89 NW9       29.69R
CEDAR RAPIDS   RAIN      52  51  97 CALM      29.65R VSB 3/4
$$

...NORTHERN ILLINOIS...


CITY           SKY/WX    TMP DP  RH WIND       PRES   REMARKS
CHICAGO-OHARE  CLOUDY    61  28  28 SE17      29.71F
DUPAGE         LGT RAIN  61  34  36 SE15G24   29.70F
CHICAGO-MIDWAY CLOUDY    62  29  28 SE14      29.72F
MOLINE         RAIN      56  52  86 CALM      29.64S FOG
ROCKFORD       CLOUDY    61  39  44 SE10      29.69S
STERLING       CLOUDY    55  50  82 NE5       29.64F
PEORIA         LGT RAIN  63  55  75 E7        29.61F
$$

NOTE: "FAIR" INDICATES FEW OR NO CLOUDS BELOW 12,000 FEET WITH NO
SIGNIFICANT WEATHER AND/OR OBSTRUCTIONS TO VISIBILITY. WIND
SPEEDS ARE IN MILES-PER-HOUR.



USA.gov is the U.S. government's official web portal to all federal, state and local government web resources and services.